STARLINK-1895 (47175 NORAD) Tracking and Keplerian Element Data

This shows tracking and keplerian element data for the satellite.

Feedback or suggestion? Click here.




ElementValue
Catalog47175
NameSTARLINK-1895
Epoch Orbit181
Epoch Day99.91667824
Epoch Year2021
RAAN58.6609
Inclination53.0512
Eccentricity0.0001577
Argument of Perigee55.201
Mean Anonmoly13.5256
Mean Motion15.07492432
Decay Rate-0.00497405
L11 47175U 20088BF 21099.91667824 -.00497405 00000-0 -34367-1 0 9991
L22 47175 53.0512 58.6609 0001577 55.2010 13.5256 15.07492432 1818

Live tracking and technical data element details for STARLINK-1895 (NORAD 47175). STARLINK-1895 can be tracked NOW for your location showing map with azimuth and elevation plus other details from your city location.

Track the satellite on the map from your city or location and see movement details for azimuth, elevation, latitude, longitude, range, height, and movement on the map or in text.







IsCatalogInMostPopularTable: catalog: 47175, numindb: 46
Update: records affected: 1



GetName: 47175 STARLINK-1895

Hit Count: updated at: Sat, 10 Apr 2021 19:52:46 GMT